GFSNE_prec_radar_282.txt.gz
Reflectivity
-20 -20 -20 -20 -2 0 -20 -20 -20 -20 -20 -20 -20 -20 -20 -20 -20 -20 -20 -3 -20 18 14 19 -20 -20 -20 -20 10 12 9 -19 11 13 9 11 -1 8
-20 -20 -20 5 -17 -20 -20 -20 -20 -20 -20 -20 -20 -20 -20 -20 -20 -20 -20 -20 8 -5 17 -0 -15 -6 -20 -18 0 -5 5 7 7 9 3 1 6 3
-20 -19 3 6 -20 -20 -20 -20 -20 -20 -20 -20 -20 -20 -20 -20 -20 -20 -20 -20 -16 19 -1 17 14 -10 -15 7 -11 -20 -20 6 10 12 13 7 -6 -9
-20 -20 -15 -20 -20 -20 -20 -20 -20 -20 -20 -20 -20 -20 -20 -20 -20 -20 -20 -6 -9 6 17 25 33 26 -3 16 16 -19 -8 -8 5 -17 -19 -20 5 8
-16 -14 -13 -20 -20 -20 -20 -20 -20 -20 -20 1 -20 -20 -1 -18 -18 -10 -20 -20 -1 33 10 26 25 18 13 9 -13 -3 -20 -20 -20 -20 -20 -20 -20 -20
10 16 13 18 -12 -20 -20 -20 -20 -20 16 8 9 14 -18 -18 -20 -20 -1 -4 16 4 28 33 34 28 14 -19 -20 -20 -20 -20 -20 -20 -20 -20 -14 -19
32 31 29 29 -4 -20 -20 -20 -20 -20 -18 -17 6 1 -16 -20 -11 5 5 27 15 20 24 31 10 25 5 -20 -20 -20 -8 -20 -20 -20 -20 -20 -20 -20
25 25 32 32 2 -19 -20 -20 -20 -20 -20 -20 -13 9 -11 7 -2 24 27 19 28 26 27 33 32 30 19 -16 -20 -20 -20 -20 -20 -20 -20 -20 -20 -20
26 29 30 3 -20 -20 -16 -20 -19 1 -16 1 8 2 15 1 12 23 29 23 25 18 29 25 27 22 21 -2 -20 -10 1 -20 -20 -20 -20 -20 -20 -20
28 29 22 -20 -1 -20 -20 -20 -20 -20 -13 -20 -4 -19 -20 -14 3 24 25 27 29 33 34 12 34 28 21 -6 -3 -20 -20 -20 -20 -20 -20 -20 -20 -20
28 33 -13 -1 6 -3 2 -11 -20 -20 3 6 5 5 2 10 12 21 29 22 18 20 27 26 22 24 25 -9 -8 -8 -20 -20 -20 -20 -20 -20 -20 -20
33 11 10 -5 5 -13 -20 -20 -20 -13 -19 -16 -16 -16 -19 12 25 27 28 26 14 20 17 17 14 5 -9 -20 -20 -20 -20 -20 -20 -20 -20 -20 -20 -20
26 2 -14 4 -16 -6 -18 -20 -11 -5 3 -19 -20 -20 6 15 24 29 28 25 25 15 10 10 7 9 -19 -20 -20 -20 -20 -20 -20 -20 -20 -20 -20 -20
-4 -16 -9 -12 -12 -16 -15 7 11 -18 -20 -20 -19 -8 4 10 14 15 17 19 19 19 7 8 7 -16 -20 -20 -20 -20 -20 -20 -20 -20 -20 -20 -20 -20
-2 -17 -20 -0 -20 -7 15 10 3 -20 -20 -20 -20 -20 -2 9 14 14 15 16 6 -15 1 -1 -20 -20 -20 -20 -20 -20 -20 -20 -20 -20 -20 -20 -20 -20
5 -16 -20 -18 -18 5 12 -1 -20 -20 -20 -20 -20 -4 6 10 11 10 8 1 -0 -3 -12 -20 -20 -20 -20 -20 -20 -20 -20 -20 -20 -20 -20 -20 -20 -20
-20 -20 -20 -20 -9 0 -17 -20 -20 -20 -20 -20 -7 1 5 6 4 3 4 4 -1 -11 -20 -20 -20 -20 -20 -20 -20 -20 -20 -20 -20 -20 -20 -20 -20 -20
-20 -20 -20 -19 -15 5 -20 -20 -20 -20 -20 -20 -2 9 11 11 10 7 0 -4 -2 -20 -20 -20 -20 -20 -20 -20 -20 -20 -20 -20 -20 -20 -20 -20 -20 -20
-20 -20 -20 -0 -1 -17 -20 -20 -20 4 5 7 10 11 10 10 9 6 -2 -20 -20 -20 -20 -20 -20 -20 -20 -20 -20 -20 -20 -20 -20 -20 -20 -20 -20 -20
-20 -20 -16 8 -14 -19 -20 -20 -20 -20 -20 -20 0 7 8 7 6 3 -2 -14 -20 -20 -20 -20 -20 -20 -20 -20 -20 -20 -20 -20 -20 -20 -20 -20 -20 -20
-20 -19 8 0 -20 -20 -20 -20 -20 -20 -5 -2 -3 4 10 9 5 -2 -18 -20 -20 -20 -20 -20 -20 -20 -20 -20 -20 -20 -20 -20 -20 -20 -20 -20 -20 -20
-20 -20 -20 -18 -20 -20 -20 -20 -20 -20 -17 2 4 4 5 2 -10 -20 -20 -20 -20 -20 -20 -20 -20 -20 -20 -20 -20 -20 -20 -20 -20 -20 -20 -20 -20 -20
-20 -20 -20 -20 -20 -20 -20 -20 -20 -20 -20 -8 -20 -20 -20 -20 -20 -20 -20 -20 -20 -20 -20 -20 -20 -20 -20 -20 -20 -20 -20 -20 -20 -20 -20 -20 -20 -20

GFSNE_prec_radar_285.txt.gz
Reflectivity
-20 -20 -20 -20 -20 -20 -20 -20 -20 -20 -20 -20 -20 -20 -20 -20 -20 -20 -20 -20 -20 11 6 11 -20 -20 -20 -20 -20 -20 -20 -20 -20 -20 -20 -6 3 9
-20 -20 -20 -20 -20 -20 -20 -20 -20 -20 -20 -20 -20 -20 -20 -20 -20 -20 -20 -20 -20 -20 -20 7 -20 -20 -20 -20 -20 -20 -11 -20 -20 -20 -11 7 6 10
-20 -20 -20 -20 -20 -20 -20 -20 -20 -20 -20 -20 -20 -20 -20 -20 -20 -20 -20 -20 -20 -5 15 17 6 -20 -10 -1 -12 -6 -20 -12 -20 -19 -20 -19 -16 -1
-19 13 -20 -7 -20 -19 -20 -20 -20 -20 -20 -20 -20 -20 -20 -20 -20 -20 -20 -20 -20 -2 14 30 21 21 21 17 24 17 -6 -5 -20 -20 -20 -19 -20 -16
-17 -13 16 -7 19 -1 19 24 24 -20 -20 -20 -15 -20 -20 -20 -20 -20 -20 -20 -20 -17 -13 23 28 21 22 14 14 21 -12 -20 -20 -20 -20 -20 -20 -20
18 25 27 29 17 -1 21 28 31 8 -15 0 0 5 7 1 7 -8 -19 -20 -19 8 8 -18 30 29 29 25 20 15 -19 -20 -20 -20 -20 -20 -18 -11
1 24 21 28 24 31 20 21 15 12 2 3 1 -2 -5 -5 -1 -20 -20 17 18 8 3 6 26 25 35 22 22 -1 -15 -20 -20 -20 -20 -20 -20 -19
-9 22 32 33 27 22 28 16 -5 1 -17 -19 -20 -20 -20 -20 -20 10 -4 3 13 21 7 17 24 35 29 2 19 13 -20 -20 -20 -20 -20 -20 -20 -19
19 4 24 27 27 30 7 -19 3 -16 7 -20 8 -6 6 22 1 10 -11 11 4 27 22 21 37 35 29 10 12 14 -7 -20 -20 -20 -20 -20 -20 -20
22 25 26 19 34 5 -20 0 -13 -20 -15 -19 -20 -20 16 -1 -20 -20 -17 19 25 31 30 18 30 26 28 12 13 -1 -8 -20 -20 -20 -20 -20 -20 -20
34 33 19 33 27 -20 -18 2 -11 -20 -20 -20 -19 -11 -2 10 11 19 8 19 8 10 28 24 24 17 29 22 11 9 -16 -20 -20 -20 -20 -20 -20 -20
33 26 33 31 8 9 11 -1 -20 -20 -16 -12 -20 -1 -20 -20 -11 -15 -6 21 11 16 21 20 21 5 6 13 8 1 -20 -20 -20 -20 -20 -20 -20 -20
11 38 28 28 9 7 -9 -15 -20 -15 -12 -8 -18 12 7 12 1 -0 15 21 20 16 14 22 14 -4 -4 -2 2 -19 -20 -20 -20 -20 -20 -20 -20 -20
27 30 21 -10 -17 -12 -9 4 7 3 -20 -20 -20 -20 -20 -11 -20 -18 7 15 24 25 21 17 9 -5 -19 -1 -20 -20 -20 -20 -20 -20 -20 -20 -20 -20
25 27 -13 -16 1 6 -20 9 7 -18 -20 -20 -20 -20 -20 -20 -20 -1 11 13 14 8 9 10 13 3 -10 -20 -20 -20 -20 -20 -20 -20 -20 -20 -20 -20
30 26 -1 -17 8 -16 16 9 -20 -20 -20 -20 -20 -20 -20 -20 -20 5 8 1 -9 -10 10 5 -20 -20 -20 -20 -20 -20 -20 -20 -20 -20 -20 -20 -20 -20
20 7 -20 -20 -8 -17 -19 -18 -20 -20 -20 -20 -20 -20 -20 -20 -20 -8 -1 -4 2 2 -8 -12 -20 -20 -20 -20 -20 -20 -20 -20 -20 -20 -20 -20 -20 -20
8 -6 -15 -14 -20 -20 -17 -17 -20 -20 -20 -20 -20 -20 -20 -20 -20 4 10 1 -13 -20 -16 -20 -20 -20 -20 -20 -20 -20 -20 -20 -20 -20 -20 -20 -20 -20
-20 -20 -18 -20 -20 -18 -20 -20 -20 -20 -20 -20 -20 -20 -20 -20 -14 -4 2 2 -4 -17 -20 -20 -20 -20 -20 -20 -20 -20 -20 -20 -20 -20 -20 -20 -20 -20
-7 -20 -20 -20 -20 -20 -18 -20 -20 -20 -20 -20 -20 -20 -20 -20 -20 -16 -7 -4 -16 -20 -20 -13 -20 -20 -20 -20 -20 -20 -20 -20 -20 -20 -20 -20 -20 -20
-20 -20 -20 -20 -20 -20 -19 -20 -20 -20 -20 -20 -20 -20 -20 -20 -10 -10 -11 -15 -20 -20 -20 -20 -20 -20 -20 -20 -20 -20 -20 -20 -20 -20 -20 -20 -20 -20
-12 -20 -20 -20 -20 -20 -19 -20 -20 -20 -20 -20 -20 -20 -20 -16 -10 -3 -0 -15 -20 -20 -20 -20 -20 -20 -20 -20 -20 -20 -20 -20 -20 -20 -20 -20 -20 -20
-20 -20 -13 -14 -20 -20 -20 -20 -20 -20 -20 -20 -20 -20 -20 -20 -20 -20 -20 -20 -20 -20 -20 -20 -20 -20 -20 -20 -20 -20 -20 -20 -20 -20 -20 -20 -20 -20

GFSNE_prec_radar_291.txt.gz
Reflectivity
-20 -20 -20 -20 -20 -1 -18 -17 -20 -20 -20 -20 -20 -20 -20 -20 -20 -20 -20 -20 -20 -20 -20 -20 -3 -19 -16 7 -20 -20 -20 -20 -20 -20 -20 1 4 4
-20 -20 -20 -20 -20 -20 -16 -20 -9 -9 -20 -20 -20 -20 -20 -20 -16 -20 -20 -20 -20 -20 -20 -20 -12 -8 4 -9 -20 -20 -20 -20 -17 -20 -20 -10 -4 4
-20 -20 -20 -20 -18 -5 7 5 -18 14 12 0 -20 -20 -20 -20 22 -20 -20 -20 -20 -20 -20 -20 -8 15 17 -9 -20 -20 -20 -20 -20 -20 -20 -20 -20 -7
-20 -20 -20 -20 -20 -3 -0 4 1 -20 2 0 6 14 -16 22 28 -4 -1 -20 -20 -20 -20 -20 -20 18 14 22 -0 -20 -20 -20 -20 -20 -20 -20 -20 -7
-14 -20 -20 -20 -20 -20 -20 5 -20 13 17 -17 14 12 19 26 29 23 18 -1 -20 -20 -20 -20 -20 -2 29 25 23 2 -20 -20 -20 -20 -20 -20 -20 -20
-8 -6 -20 -20 -20 -20 7 -6 24 -4 22 24 31 26 4 19 26 19 24 -6 -20 -20 -20 -20 -20 19 35 27 20 11 -20 -20 -20 -20 -20 -20 -20 -20
-5 -7 -5 3 -7 -3 13 17 8 -4 -1 37 18 21 27 24 29 10 22 19 3 -20 -20 -20 -17 7 14 32 21 0 -20 -8 -20 -20 -20 -20 -20 -20
-20 -20 0 -20 -20 -20 -15 30 15 -5 10 25 34 31 11 1 24 11 -20 -20 -20 -20 -20 -20 -3 -2 -8 -18 19 18 19 3 -4 -20 -20 -20 -20 -20
-20 -19 -16 -13 -11 -14 -17 30 21 29 28 26 33 33 33 27 9 -15 -20 -20 -20 -18 -20 -3 19 13 20 17 25 8 -3 -7 -20 -20 -20 -20 -20 -20
-20 -20 -20 -11 7 7 12 18 20 21 37 34 32 30 32 28 -1 -18 -10 7 11 -7 -0 8 19 28 30 27 25 10 -1 -20 -20 -20 -20 -20 -20 -20
3 -17 -14 1 0 19 21 23 28 36 34 30 16 24 18 -11 -20 -14 -0 -2 -16 -19 11 9 26 20 30 28 16 14 3 -20 -20 -20 -20 -20 -20 -20
-18 -20 3 -15 -18 23 18 26 26 33 38 27 17 7 -5 -20 -13 -3 -16 -17 -20 -17 5 12 18 22 18 11 19 19 1 -20 -20 -20 -20 -20 -20 -20
16 -11 -19 19 23 26 30 34 35 37 34 29 -11 -19 -20 -20 -20 -20 -13 6 19 0 8 23 21 5 -11 -9 11 13 -7 -20 -20 -20 -20 -20 -20 -20
-16 -19 14 26 31 34 32 31 29 31 14 -20 -20 -20 -20 -20 -20 -20 -0 -5 -3 -11 -0 11 24 -2 -13 13 12 10 -19 -20 -20 -20 -20 -20 -20 -20
10 8 16 24 31 29 24 24 28 -2 -20 -20 -20 -20 -20 -20 -20 -20 -0 8 13 2 13 10 16 10 23 13 15 1 -20 -20 -20 -20 -20 -20 -20 -20
25 18 17 24 29 31 26 26 -15 -20 -18 -20 -20 -20 -20 -20 -20 -20 -20 -20 -15 2 11 17 27 21 14 15 9 -10 -20 -20 -20 -20 -20 -20 -20 -20
20 16 -8 14 28 24 19 -15 -20 -20 -20 -20 -20 -20 -20 -20 -20 -20 -20 -19 3 8 13 16 18 18 19 10 -20 -20 -20 -20 -20 -20 -20 -20 -20 -20
29 23 24 23 17 10 -17 -17 -20 -18 -20 -20 -20 -20 -20 -20 -20 -20 -20 -19 -12 6 13 11 11 10 -3 -7 -11 -20 -20 -20 -20 -20 -20 -20 -20 -20
21 31 17 8 -20 -20 -18 -20 -20 -20 -20 -20 -20 -20 -20 -20 -20 -20 -20 -20 -4 2 12 13 10 5 -7 -14 -16 -20 -20 -20 -20 -20 -20 -20 -20 -20
31 22 -8 -20 -20 -20 -20 -20 -20 -20 -20 -20 -20 -20 -20 -20 -20 -20 -20 -8 4 3 -6 -7 4 3 -3 -6 -20 -20 -20 -20 -20 -20 -20 -20 -20 -20
30 29 18 -20 -20 -20 -18 -19 -20 -20 -20 -20 -20 -20 -20 -20 -20 -19 -17 -11 -1 4 5 -0 -10 -19 -20 -20 -20 -20 -20 -20 -20 -20 -20 -20 -20 -20
31 30 6 -20 -20 -20 -20 -20 -20 -20 -20 -20 -20 -20 -20 -20 -20 -6 -4 -6 -0 4 -6 -20 -20 -20 -20 -20 -20 -20 -20 -20 -20 -20 -20 -20 -20 -20
31 24 9 -9 -20 -20 -20 -20 -20 -20 -20 -20 -20 -20 -20 -20 -20 -0 -10 -6 -2 -0 -10 -20 -20 -20 -20 -20 -20 -20 -20 -20 -20 -20 -20 -20 -20 -20

GFSNE_prec_radar_294.txt.gz
Reflectivity
-20 -20 -20 -20 -20 -20 -20 -20 9 4 -19 -20 -20 -20 -20 -20 -20 -20 -20 -20 -20 -20 -20 -20 -20 -20 9 -15 -2 -20 -20 -20 -20 -20 -20 -20 -4 4
-20 -20 -20 -20 -20 -20 -20 -20 -20 -4 8 -18 -18 -20 -19 -20 -3 -20 -20 -20 -20 -20 -20 -20 -20 -20 15 17 -13 -20 -20 -20 -20 -20 -20 -20 -20 -12
-20 -20 -20 -20 -20 -20 -20 -20 -20 -20 14 -8 -17 5 4 -2 -2 7 -8 7 -20 -20 -20 -20 -20 -20 11 13 20 -20 -20 -20 -20 -20 -20 -20 -20 1
-20 -20 -5 0 -12 -4 -20 -20 -20 -20 -20 -16 5 -20 10 -2 20 18 2 17 9 -20 -20 -20 -20 -20 -18 17 -19 -18 -20 -20 -20 -20 -20 -20 -20 0
-20 -20 -20 -20 -20 -14 -8 10 -17 -20 -20 -18 13 19 -2 26 24 30 18 20 -6 -20 -12 -7 -20 -20 -19 22 7 24 22 -11 -20 -20 -20 -20 -20 -20
-20 -20 -20 -20 -20 -20 -14 1 3 7 5 -8 1 31 17 31 22 28 26 11 20 -1 -8 -7 -2 -16 -11 21 23 38 20 -20 -20 -20 -20 -20 -20 -20
-20 -20 -20 -20 -20 -20 7 7 6 12 8 12 23 28 21 8 17 14 35 35 30 19 16 -11 -20 -10 -9 31 30 22 29 7 -13 -20 -20 -20 -20 -20
-20 -20 -20 -20 -20 -20 -15 6 12 6 17 24 18 19 27 -6 11 34 36 23 34 24 -6 -20 -20 -18 -20 -20 19 27 17 -4 -18 -13 -4 -20 -20 -20
-20 -20 -20 -20 -20 -20 -20 -20 -20 9 14 25 -5 29 28 16 25 34 36 34 27 7 -20 -20 -18 -1 7 23 25 21 13 10 -14 -20 -20 -20 -20 -20
-9 -20 -20 -20 -3 5 9 11 1 8 -11 1 16 30 26 39 34 33 33 29 13 -14 -20 -17 9 32 24 29 26 24 11 -0 -16 -20 -20 -20 -20 -20
-20 -16 -4 -20 -20 -19 8 7 -3 -3 21 21 21 38 41 35 31 27 21 -8 17 16 -14 -3 16 23 31 28 27 23 7 -2 -20 -20 -20 -20 -20 -7
-20 -18 -1 -20 -20 -20 -1 -20 12 21 15 22 33 33 31 31 31 17 -17 -1 -5 -13 -19 -12 2 8 18 26 30 18 9 -4 -20 -20 -20 -20 -20 -20
-20 -20 -20 3 11 16 12 9 22 27 28 31 34 33 35 30 12 -17 -17 -14 -12 2 -5 -10 18 20 -7 -15 2 18 10 -20 -20 -20 -20 -20 -20 -20
-17 -9 -12 10 17 21 -4 13 20 26 28 31 24 -1 -16 -20 -20 -20 -20 -15 0 18 26 -6 21 -4 -20 -20 -8 14 9 -17 -20 -20 -20 -7 -20 -20
5 2 -2 10 15 8 -5 9 18 28 12 -17 -20 -20 -20 -20 -20 -20 -19 -9 -10 9 11 6 -5 -7 -20 -20 4 14 13 -16 -20 -20 -20 -20 -20 -20
-0 -1 13 14 18 23 12 2 20 16 -20 -20 -20 -20 -20 -20 -20 -20 -20 -9 -14 -15 -17 18 28 25 16 -10 11 10 0 -14 -20 -20 -20 -20 -20 -20
-3 -10 6 17 9 17 -14 1 15 -17 -20 -20 -20 -20 -20 -20 -20 -20 -20 -20 -20 -20 -4 12 15 10 12 3 -5 3 0 -20 -20 -20 -20 -20 -20 -20
-4 -2 23 25 26 14 -19 -18 -20 -20 -20 -20 -20 -20 -20 -2 -7 -17 -20 -20 -20 -20 2 13 8 -9 -10 -5 6 -7 -20 -20 -20 -20 -20 -20 -20 -20
14 22 25 33 31 6 -20 -19 -18 -20 -20 -20 -20 -20 -20 -19 -15 -20 -20 -20 -20 -9 -11 -11 -1 -3 -20 -20 -12 -20 -20 -20 -20 -20 -20 -20 -20 -20
-7 21 31 34 36 25 -10 -17 -20 -20 -20 -20 -20 -20 -4 -20 -20 -20 -20 -20 -20 -20 -20 -20 -20 -10 5 -3 -10 -20 -20 -20 -20 -20 -20 -20 -20 -20
-14 26 34 35 37 29 6 -20 -19 -20 -20 -20 -20 -20 -20 -20 -20 -20 -20 -20 -20 -20 -19 -7 -6 -20 -20 -20 -20 -20 -20 -20 -20 -20 -20 -20 -20 -20
-16 21 31 35 34 29 24 -11 -20 -20 -20 -20 -20 -20 -20 -20 -20 -20 -12 -20 -20 -20 -20 -20 -20 -20 -20 -20 -20 -20 -20 -20 -20 -20 -20 -20 -20 -20
-20 24 27 32 31 26 26 2 -20 -20 -20 -20 -20 -20 -20 -20 -20 -20 -20 -20 -20 -20 -20 -20 -20 -20 -20 -20 -20 -20 -20 -20 -20 -20 -20 -20 -20 -20

GFSNE_prec_radar_297.txt.gz
Reflectivity
-20 -20 -20 3 6 10 -1 -6 9 11 -4 -19 -10 -20 -20 -20 -20 -20 -20 -20 11 -20 -16 -20 -20 -20 -20 -20 -20 18 -20 -20 -20 -20 -20 -20 -20 12
-20 -20 -20 -20 -20 -5 10 9 -1 4 1 -9 -10 -18 9 18 -4 26 3 -8 6 2 1 -15 -20 -20 -20 -20 7 -3 -20 -20 -20 -20 -20 -20 -20 -20
-20 -20 -20 -20 -20 -20 -20 5 10 6 -0 -20 -20 -20 -20 -14 -9 -13 20 18 2 -2 3 3 -20 -20 -20 -18 13 20 -19 -20 -19 -20 -11 -20 -20 -20
-20 -20 -20 -20 -20 -20 -20 -20 5 1 3 7 -20 3 -18 -20 -20 -12 4 24 25 21 22 20 20 2 -20 -20 22 16 -17 -18 -11 -20 -20 -20 -20 -3
-20 -20 -20 -20 -20 -20 -20 -20 -14 -2 6 11 -17 -12 11 3 -16 -8 -16 17 22 31 15 25 20 15 -14 9 -2 -3 15 5 5 -18 -18 -20 -20 -20
-20 -20 -20 -20 -20 -20 -20 -20 -20 -16 8 13 6 -17 12 -5 -1 8 19 12 26 11 25 25 24 9 15 4 8 -5 -6 18 36 -18 -20 -20 -20 -20
-20 -20 -20 -20 -20 -20 -1 -12 -20 -13 5 5 9 7 10 6 13 -2 14 37 29 32 38 29 18 29 16 7 6 11 20 11 29 27 -9 -20 -20 -20
-20 -20 -20 -20 -20 -20 -20 3 8 -3 1 -12 9 5 16 5 12 1 19 29 35 21 28 34 30 21 1 4 11 29 32 24 16 2 17 -16 -20 -20
-20 -20 -20 -20 -20 -20 -20 4 12 2 13 16 16 -7 16 -1 28 28 32 22 37 37 34 36 31 18 -1 8 12 -1 10 22 27 17 -20 -20 -20 -20
-20 -20 -20 -20 -11 0 -15 -20 -20 -20 -15 -11 3 -12 16 16 8 26 31 39 41 40 32 21 13 2 15 27 24 21 20 14 17 -6 -20 -20 -20 -20
-20 -20 -20 -20 1 -13 6 -19 -20 -20 16 15 20 26 16 19 30 34 39 36 27 30 26 -3 7 10 27 25 18 24 26 16 2 -20 -20 -20 -13 -4
-20 -20 -16 -0 9 5 -12 -20 -20 -8 12 15 11 17 29 24 27 32 34 31 20 -14 18 -0 -2 -3 12 20 24 22 23 15 1 -19 -20 -10 -20 -20
-10 -20 -20 -20 5 9 13 5 10 10 12 2 1 13 24 24 23 26 29 20 11 17 1 1 -13 -1 1 -15 -6 21 22 21 -7 -8 -20 -20 -20 -20
-20 -17 -17 -16 2 9 18 14 11 22 -6 -18 5 10 -6 4 0 -3 -9 -3 -3 0 -1 -3 -20 -20 -20 -20 -13 9 10 3 -12 -20 -20 -13 -20 -10
-20 -18 2 -11 -5 7 17 21 11 26 16 -20 -20 -20 -20 -20 -20 -20 -20 -20 -20 1 15 25 11 -2 13 -4 -12 7 10 8 -8 -20 -20 -20 -20 -20
-8 4 -1 -1 13 15 19 21 18 28 18 -20 -20 -20 -20 -20 -20 -20 -20 -20 -16 -16 -6 14 12 16 6 -18 15 17 5 5 -16 -20 -20 -20 -20 -20
6 -4 -14 -13 -9 20 31 27 27 30 1 -20 -20 -20 -20 -20 -20 -20 -20 -20 -20 -19 -14 2 8 6 14 12 15 -13 -12 -15 -3 -14 -20 -20 -20 -20
6 -0 -7 -1 5 27 24 26 30 23 11 -20 -20 -20 -20 -20 -20 -14 -9 -20 -20 -20 -20 -9 4 9 11 12 9 -1 2 -0 -16 -20 -20 -20 -20 -20
2 -16 -1 2 5 23 29 26 22 17 9 -20 -20 -20 -20 -20 -13 -10 -20 -20 -20 -20 -20 -6 9 11 11 8 5 10 3 -20 -20 -20 -20 -20 -20 -20
12 -3 3 18 1 19 24 23 18 18 4 -20 -20 -20 -20 -20 -20 -20 -20 -20 -20 -20 -20 -6 5 -1 3 6 5 -2 -20 -20 -20 -20 -20 -20 -20 -20
-20 -10 10 -3 18 28 29 23 18 17 10 -20 -20 -20 -20 -11 -20 -20 -20 -20 -20 -20 -20 -20 6 12 12 3 -17 -20 -20 -20 -20 -20 -20 -20 -20 -20
-19 -20 -20 -9 26 28 30 16 15 11 2 -20 -20 -20 -19 -20 -20 -20 -20 -17 -20 -20 -20 -20 -20 -20 -20 -20 -20 -20 -12 -20 -20 -20 -20 -20 -20 -20
-16 -2 -10 7 27 28 25 11 12 6 -17 -20 -20 -20 -20 -20 -20 -20 -20 -20 -20 -20 -20 -20 -20 -20 -20 -20 -20 -20 -20 -20 -20 -20 -20 -20 -20 -20

GFSNE_prec_radar_300.txt.gz
Reflectivity
-20 -20 -20 -20 -20 -20 -20 2 10 1 -20 -20 -20 -20 -13 -20 -20 -20 -13 -20 -19 -20 -10 21 10 6 8 -0 -5 -18 21 -17 -20 -20 -20 -20 -20 -20
-20 -20 -20 -20 -20 -20 -20 -20 1 -3 -4 -20 -20 -20 -13 -9 -20 -20 -20 -12 -11 -20 -19 -20 -13 10 15 5 25 -18 21 4 -19 -20 -20 -20 -20 -20
-20 -20 -20 -20 -20 -20 -20 -20 -20 -11 -2 -20 -20 -20 -20 -20 -20 -20 -20 4 7 14 22 -19 -12 12 18 22 29 13 24 6 -12 -7 -12 -6 -20 -20
-20 -20 -20 -20 -20 -20 -20 -20 -20 -20 -15 -20 -20 -20 -20 -20 -20 -12 -20 -20 16 -20 26 11 25 26 27 19 21 23 30 28 31 16 17 -9 -1 0
-20 -20 -20 -20 -20 -20 -20 -20 -20 -20 -17 -12 -14 -20 -20 -1 3 2 -1 -14 -19 -19 8 27 24 36 30 30 32 19 32 35 34 31 19 12 -20 -20
-20 -20 -20 -20 -20 -20 -20 -20 -20 8 13 2 -3 -10 -17 -18 3 10 2 16 10 12 22 19 34 37 33 33 31 26 29 31 29 19 26 -1 -20 -20
-20 -20 -20 -20 -20 -17 -20 -14 -11 -2 -3 -17 -17 -10 -18 -20 -15 -15 7 4 -20 29 12 16 28 29 33 33 23 28 26 27 26 9 28 25 13 -20
-20 -20 -20 -20 -20 -20 -7 13 8 1 -20 -20 -20 -20 2 7 -4 5 -16 18 12 7 27 23 31 38 27 24 27 30 29 29 29 29 27 12 9 -17
-20 -20 -20 -20 -20 -20 -20 6 -20 12 9 9 -20 -18 -18 -18 4 -8 5 22 26 25 27 29 36 38 30 31 25 29 29 23 14 9 10 -20 -7 -17
-20 -20 -20 -20 -20 -20 -8 2 -9 -16 -20 -8 -18 -3 4 1 17 3 -6 14 25 26 28 24 33 33 30 29 29 21 18 13 20 19 -7 -4 -9 -20
-20 -20 -20 -20 -20 -0 -6 1 1 3 -20 -19 18 16 13 5 14 18 21 27 21 24 36 27 25 26 21 19 16 22 21 19 14 -6 -20 -11 -8 -4
-20 -20 -20 -20 -17 -1 8 -2 5 -20 -20 -20 -20 12 10 11 13 20 25 27 14 12 25 16 10 -1 -1 16 23 18 12 12 3 3 1 2 -20 -20
-20 -20 -20 -20 -20 2 2 -4 3 -5 2 -20 -5 -19 -13 -20 0 6 21 27 34 22 24 -10 -13 -20 -20 -18 -9 10 5 5 11 -3 0 -20 -20 -20
-20 -20 -20 -20 2 -0 -7 -20 6 22 7 16 10 -4 -20 -4 -19 -20 -1 20 15 7 18 11 11 -20 -20 -20 -20 -9 5 1 1 -18 -20 -17 3 -15
-20 -20 -9 -7 -2 -8 -9 9 12 22 25 14 -8 -18 -2 -20 -20 -20 -20 -20 -20 -6 5 -3 -10 -13 -20 -20 -20 -15 -1 8 -9 -18 -20 -20 -20 -20
-20 -18 1 7 11 12 12 12 -19 9 28 26 14 5 15 -20 -20 -20 -20 -20 -20 -17 2 16 8 2 -11 -1 3 8 1 -7 -16 -20 -20 -20 -20 -20
-8 -11 -19 -11 -13 -19 -13 6 -3 22 20 19 17 13 18 -19 -20 -20 -20 -20 -20 -20 -17 1 2 -0 -2 -2 11 4 -18 -17 -19 -20 -20 -20 -20 -20
-6 -7 -20 -17 -2 -1 5 21 3 20 19 17 14 17 17 -18 -20 -20 -20 -20 -20 -20 -20 -0 0 -4 -5 -7 7 -7 -11 -20 -20 -20 -20 -20 -20 -20
-7 -1 8 1 10 4 4 9 1 12 17 14 10 16 14 -20 -9 -20 -20 -20 -20 -20 -20 -20 -7 -20 -20 -20 -6 5 6 -9 -20 -20 -20 -20 -20 -20
-1 -17 -19 -14 -2 1 -15 4 1 15 14 10 5 16 5 -20 -20 -20 -20 -20 -20 -20 -20 -20 -20 -19 -2 1 5 11 9 -9 -20 -20 -20 -20 -20 -20
-14 -20 -20 -20 -19 -20 -8 6 12 15 13 8 9 14 -18 -20 -20 -20 -20 -20 -20 -20 -20 -20 -13 -2 7 3 -4 -5 -7 -14 -20 -20 -20 -20 -20 -20
-20 -19 -20 -19 -3 -11 -4 16 12 16 12 4 7 -8 -7 -20 -20 -20 -20 -20 -20 -20 -20 -20 -20 -20 -20 -20 -20 -19 -14 -20 -20 -20 -20 -20 -20 -20
-20 -20 -20 -10 4 23 15 18 13 13 8 6 1 -20 -20 -20 -20 -20 -20 -20 -20 -20 -20 -20 -20 -18 -20 -8 -7 -20 -20 -20 -20 -20 -20 -20 -20 -20

GFSNE_prec_radar_306.txt.gz
Reflectivity
-20 -20 -20 -20 -20 -20 -20 -20 -8 -20 -20 -20 -20 -20 -20 -20 -20 -20 -20 -20 -20 -20 -20 -20 -20 -20 -20 -20 -16 -3 -15 -20 10 18 8 11 31 27
-20 -20 -20 -20 -20 -20 -20 -20 -20 -17 -20 -20 -20 -20 -20 -20 -20 -20 -20 -20 -20 -20 -20 -20 -20 -20 -20 -14 -20 -14 -7 14 -2 6 -20 5 42 30
-20 -20 -20 -20 -20 -20 -20 -20 -20 -20 -20 -20 -20 -20 -20 -20 -20 -20 -20 -20 -20 -20 -20 -20 -20 -20 -20 -20 -20 -20 -20 -2 22 -14 -8 -6 44 34
-20 -20 -20 -20 -20 -20 -20 -20 -20 -20 -20 -20 -20 -20 -20 -20 -20 -20 -20 -20 -20 -20 -20 -20 -20 -20 -20 -20 -20 -20 -20 10 16 12 -13 36 40 36
-20 -20 -20 -20 -20 -20 -20 -20 -20 -20 -20 -20 -20 -20 -20 -20 -20 -20 -20 -20 -20 -8 -20 -20 -20 -20 -20 4 -20 -2 0 26 21 20 10 41 38 27
-20 -20 -20 -20 -20 -20 -20 -20 -20 -20 -20 -20 -20 -20 -20 -20 -20 -8 -18 4 -13 -20 -20 -10 3 -2 -18 -19 -15 16 10 -17 -14 16 31 35 39 34
-20 -20 -20 -20 -20 -20 -20 -20 -20 -20 -20 -20 -20 -20 -20 -20 -20 -7 9 -2 -12 -20 -6 -1 -20 -20 -11 10 2 13 13 19 27 24 27 39 39 29
-20 -20 -20 -20 -20 -20 -20 -20 -7 3 -11 -0 -20 -20 -20 0 6 12 12 11 3 -20 -8 -16 -11 15 1 5 21 17 17 30 30 31 30 28 28 22
-20 -20 -20 -20 -20 -20 -20 -20 -20 -20 -20 -1 1 -3 -20 -15 3 -12 -1 0 -7 -6 7 0 1 -2 -1 -2 7 23 22 20 22 25 28 29 28 24
-20 -20 -20 -20 -20 -20 -20 -20 -20 -20 -20 -20 -20 -20 -20 -20 6 23 5 5 4 -10 17 8 10 -2 5 25 25 25 23 23 18 21 26 22 17 10
-20 -20 -20 -20 -20 -20 -20 -20 -20 -20 -20 10 8 -20 -18 -16 18 23 11 24 16 27 21 23 12 20 22 21 18 27 31 24 18 20 11 8 9 5
-20 -20 -20 -20 -20 -20 -12 -17 -20 -20 -19 -8 -12 4 14 10 14 18 25 12 21 26 32 18 -7 3 7 29 27 25 20 24 23 15 18 18 -8 -20
-20 -20 -20 -20 -20 -20 -7 -19 -7 -0 3 -6 -2 -9 -18 1 10 1 14 14 14 28 35 37 18 13 -6 -3 -2 9 25 23 12 10 8 -1 -20 -20
-20 -20 -20 -20 -20 -20 -20 -20 9 8 -15 -16 -19 1 -5 13 -4 -16 5 16 9 19 28 33 24 18 14 1 -3 7 4 12 6 -4 -4 4 -4 -20
-20 -20 -20 -20 -20 -20 -20 -20 -7 -18 -20 -20 -18 6 -11 -7 -15 -19 -17 -9 8 15 27 37 32 18 13 -16 -20 -16 -3 10 -4 -18 -16 -20 -20 -20
-20 -20 -20 -20 -20 -20 -20 -20 -19 -1 -11 -13 5 7 -9 -16 -10 3 -9 12 7 13 -6 5 16 8 -12 -19 -18 -18 -18 -14 -12 -15 -18 -20 -20 -20
-20 -20 -20 -20 -20 -20 -20 -20 -20 -20 -19 -5 -17 -13 -20 -19 -18 -19 9 10 -12 -20 -20 -15 -6 1 5 3 -12 -14 -20 -20 -17 -16 -20 -20 -20 -20
-20 -20 -20 -20 -20 -16 -20 -20 -20 -18 -18 -20 -9 -11 -19 -17 -16 -13 7 1 -20 -20 -20 5 1 -10 -15 -13 -13 -17 -15 -16 -13 -9 -14 -20 -20 -20
-20 -20 -16 -10 -20 -20 -20 -20 -20 -20 -20 -20 -9 -12 -18 -20 -15 -20 1 -20 -20 -20 -20 -16 -3 3 -20 -20 -16 1 -6 -14 -20 -8 -20 -20 -20 -20
-20 -20 -20 -20 -20 -20 -20 -20 -20 -20 -19 -5 3 -11 -20 -9 -20 -19 4 -20 -20 -20 -20 -20 -20 -20 -19 -2 -7 -9 6 -5 -20 -20 -20 -20 -20 -20
-20 -20 -20 -20 -11 -11 -20 -20 -20 -17 10 8 -13 -20 -11 -12 -20 -15 -19 -20 -20 -20 -20 -20 -20 -20 -20 -20 -20 -6 3 -4 3 -17 -20 -20 -20 -20
-20 -20 -20 -20 -20 -20 -20 -20 -19 -19 6 -18 -19 -20 5 -10 -20 -20 -20 -20 -20 -20 -20 -20 -20 -20 -20 -20 -20 -9 -6 -0 -2 -17 -20 -20 -20 -20
-20 -20 -20 -20 -20 -20 -20 -20 -20 -2 9 -11 -17 -12 1 -15 -20 -20 -20 -20 -20 -20 -20 -20 -20 -20 -20 -19 -20 -12 -2 -2 -15 -20 -20 -5 -20 -20